Retour au catalogue

COSMOS 2071

ActifMilitaireLEO
NORAD 20556·PAYLOAD·🇷🇺 Russia

Lancé Apr 6, 1990 depuis Plesetsk Cosmodrome

Loading…

Prochains Passages (prochaines 24 heures)

TLE

FraisSource: Space-Track

Époque: Sep 14, 2026, 01:31 UTC

1 20556U 90029H   26257.06329164  .00000005  00000-0  13551-3 0  9994
2 20556  73.9801 123.2542 0003274 286.2650 226.8037 12.50944082664045

Suivez COSMOS 2071 en temps réel avec AllMySat

Download on the App Store